Theta_e
327 327 328 329 331 332 331 330 329 329 329 329 329 329 330 331 329 328 328 328 328 328 329 327 326 326 326 328 328 327 326 325 325 324 324 324 322 321 322 322 321 319 322 319 319 318 316 314 314 317 319 320 322 321 321 323 323 323 322 319 318 317 315
325 326 329 329 329 331 330 329 328 329 329 329 329 329 329 330 331 330 329 328 328 328 329 327 326 326 326 326 327 327 325 324 324 324 325 324 323 321 320 315 317 317 317 315 319 317 312 312 311 313 311 313 315 315 320 321 322 322 321 318 318 317 317
324 325 329 328 328 330 329 328 328 328 329 329 328 328 328 329 330 331 330 328 327 328 329 326 326 326 325 326 327 327 326 324 324 324 324 324 324 321 321 317 313 313 314 314 314 313 313 311 312 313 311 312 311 311 317 319 320 319 318 318 317 315 313
324 326 327 327 328 328 328 328 328 327 329 329 328 327 328 329 329 331 329 328 328 329 328 325 325 326 325 325 326 326 326 325 324 323 322 322 323 321 320 320 319 318 317 314 314 314 313 308 310 308 308 312 312 311 314 317 319 318 318 315 315 313 312
324 325 327 327 327 327 327 327 328 328 328 328 327 326 326 327 329 330 330 328 327 327 327 326 325 326 325 325 324 325 326 325 324 324 322 322 321 321 320 319 319 320 318 318 317 317 315 312 314 310 309 309 312 309 313 313 317 317 316 315 314 313 311
325 326 327 327 328 328 328 327 327 327 327 327 327 327 326 326 328 328 327 326 325 326 326 325 325 325 325 325 324 324 325 324 324 324 323 322 322 322 322 318 318 319 319 317 319 317 314 313 312 308 308 311 308 307 309 314 311 309 311 314 313 312 310
325 327 328 328 328 328 328 327 327 328 327 328 328 327 327 327 327 327 327 326 326 326 326 326 325 325 325 325 324 324 324 324 324 323 323 323 322 322 322 320 319 319 317 318 319 317 313 311 309 310 308 306 309 308 306 307 309 312 308 308 310 310 310
326 327 326 327 328 328 328 327 327 328 328 328 327 327 325 326 326 326 326 325 325 325 325 325 325 325 325 325 324 324 324 323 324 323 322 323 323 321 320 321 320 318 317 318 319 318 315 313 312 310 310 307 304 305 305 304 308 312 308 303 307 308 308
327 326 324 324 326 328 327 327 326 326 327 326 326 325 324 326 325 326 326 326 325 325 325 325 325 325 325 325 325 325 324 325 323 323 322 322 323 322 321 319 319 319 319 319 319 318 315 313 313 312 312 311 307 303 302 303 306 308 306 304 303 307 308
324 324 324 324 324 325 325 325 324 324 324 324 325 325 324 324 325 326 326 326 325 325 324 324 324 324 325 325 325 325 325 324 323 323 322 322 323 322 320 320 320 319 319 319 319 318 316 314 313 312 313 312 311 305 301 300 303 304 303 301 306 305 307
323 323 323 323 323 323 322 323 321 321 322 324 326 326 324 324 324 328 325 325 324 323 323 323 324 324 324 324 324 326 327 324 323 321 321 322 322 322 320 320 319 318 319 319 319 319 317 315 312 311 310 310 310 307 303 302 301 301 304 303 302 305 304
322 323 324 324 323 323 323 322 322 322 323 323 325 325 324 324 324 325 325 324 323 323 323 323 324 324 324 322 323 326 326 324 323 321 320 321 321 322 320 320 318 319 318 319 319 319 318 316 312 311 310 310 310 309 306 302 299 301 305 306 302 302 304
323 324 323 323 324 324 323 322 323 322 323 324 324 325 325 324 324 324 324 323 322 322 323 322 323 323 322 322 323 324 325 325 323 321 320 320 322 321 321 320 318 318 318 318 319 319 318 318 314 312 310 309 307 306 306 304 302 303 301 306 304 301 304
322 322 323 323 323 323 324 323 323 324 323 323 324 324 324 325 325 324 324 323 322 322 322 321 322 321 321 322 323 324 324 324 322 319 322 321 322 321 321 320 319 318 318 319 319 319 319 318 317 314 311 308 306 305 305 303 302 299 300 301 302 301 302
322 322 322 322 322 322 323 322 322 322 322 323 323 324 323 324 324 324 323 322 322 322 322 321 320 320 320 321 322 324 323 323 321 319 321 322 322 323 320 320 320 318 319 319 318 320 320 319 319 317 312 308 306 305 306 304 300 299 299 301 300 301 301
322 321 321 321 322 322 323 323 323 321 322 321 321 323 322 323 324 324 323 322 321 320 321 321 320 320 320 321 322 323 323 322 320 320 320 321 323 322 319 319 319 318 319 318 318 320 320 320 319 319 316 312 307 305 304 303 300 298 299 299 299 300 301
321 321 321 321 321 321 322 322 322 321 321 320 320 320 321 322 323 323 323 322 320 319 319 320 319 320 320 320 321 321 321 320 319 319 320 320 321 321 320 319 319 319 318 318 317 318 319 320 319 318 317 315 311 307 303 302 303 301 299 300 299 301 301
320 321 321 321 321 321 321 322 322 321 320 319 319 319 319 321 322 322 322 322 321 320 320 320 320 319 319 320 320 320 320 320 319 319 319 320 322 320 320 320 320 319 318 318 315 317 318 318 319 317 317 316 314 312 307 303 302 301 300 301 300 300 300
319 320 320 321 321 321 321 321 321 321 320 319 317 318 319 319 321 321 321 321 321 320 320 320 321 320 320 319 319 319 320 320 319 319 319 319 321 320 320 320 320 320 319 319 318 316 316 317 316 316 316 315 315 311 308 304 302 302 301 301 301 299 298
320 319 320 320 320 321 321 320 321 320 320 319 317 316 316 317 318 319 319 319 319 318 318 319 319 319 319 319 319 319 318 318 318 318 318 319 320 320 321 321 320 320 320 320 318 317 316 315 315 315 315 314 311 309 307 305 302 301 301 300 299 300 299
319 319 319 320 320 321 321 320 320 320 319 317 315 315 316 316 314 314 313 313 309 310 311 312 313 316 318 319 318 318 318 318 318 317 317 317 319 320 321 320 320 320 320 320 319 317 317 316 314 313 313 313 309 307 306 303 301 301 299 299 299 298 298
319 319 319 320 320 320 320 320 320 319 317 315 314 314 315 313 311 309 307 306 305 305 307 307 307 312 316 317 317 317 318 318 317 317 316 316 316 317 317 316 317 318 320 321 315 314 315 316 316 314 311 312 309 308 305 302 302 300 299 299 298 299 298
318 319 319 319 319 320 319 319 318 318 316 314 313 313 311 310 310 308 306 303 302 302 301 301 302 301 307 316 316 318 317 317 317 316 315 315 312 311 311 310 314 318 317 313 307 303 303 307 312 315 313 310 307 307 305 303 301 301 300 299 299 299 298
317 318 319 319 318 318 318 317 317 316 313 312 312 311 310 308 306 306 305 303 300 299 298 298 296 295 297 303 314 314 315 315 315 315 315 315 311 308 308 308 307 311 309 308 304 299 297 296 297 297 299 304 308 307 305 303 302 301 301 301 299 299 298
317 316 316 317 317 317 316 315 314 313 312 311 310 308 307 305 303 302 301 300 298 297 297 296 292 295 296 300 306 312 312 313 313 313 314 312 309 308 307 307 307 309 307 305 305 305 303 298 296 296 295 295 294 295 299 304 303 302 302 302 301 300 299
315 316 316 317 317 316 314 313 311 311 310 309 306 305 303 302 300 299 299 298 296 296 295 295 292 295 297 300 302 308 310 310 311 310 310 309 308 306 305 304 303 303 308 312 309 305 306 305 300 298 298 297 296 294 293 294 298 303 304 305 303 300 299
306 308 315 316 316 313 312 311 309 307 306 305 302 300 299 298 297 297 297 296 295 296 295 295 292 296 298 298 301 305 310 310 309 309 309 307 305 304 303 304 303 302 302 305 308 310 311 310 308 305 301 299 297 297 295 294 294 296 302 305 304 301 301
304 305 305 311 313 312 311 307 305 304 302 301 299 297 296 295 296 296 295 295 296 295 295 292 293 298 297 299 301 304 309 306 302 300 298 298 298 298 298 299 299 298 298 300 303 308 310 308 306 304 300 298 296 295 295 295 296 297 298 298 298 299 300
303 303 303 304 307 309 307 305 302 301 299 298 298 296 295 295 294 294 294 295 294 294 294 292 295 298 297 299 301 306 303 300 298 297 296 296 296 295 295 295 295 295 295 295 296 297 301 305 304 301 298 296 295 295 296 296 293 294 296 296 296 297 296
302 302 302 302 301 302 302 301 301 300 298 297 297 296 294 294 294 294 294 294 293 293 294 293 293 295 296 297 300 302 300 299 297 297 296 296 296 296 295 294 293 293 293 293 293 292 294 297 297 297 296 294 295 295 295 296 294 293 293 293 293 293 293
301 301 301 301 301 301 301 301 300 300 297 296 295 295 295 295 295 296 295 294 294 294 294 293 292 293 294 295 299 300 299 297 296 295 294 294 295 296 299 300 298 293 292 293 291 292 293 295 294 294 294 293 294 294 293 294 296 296 294 294 294 294 294
301 301 301 301 301 300 300 300 300 299 298 297 296 296 296 296 296 296 296 296 298 295 293 294 292 292 292 293 298 299 298 296 294 293 293 293 293 293 293 295 296 295 294 292 291 291 292 294 293 293 293 294 294 293 291 291 293 295 295 296 296 297 297
299 300 300 300 301 300 300 299 298 298 297 297 296 296 296 296 295 295 296 296 296 296 294 293 293 292 293 293 295 301 299 297 295 294 294 294 293 293 293 293 294 290 290 290 290 291 291 292 293 293 294 294 294 293 291 292 294 294 294 294 294 295 295
298 299 300 300 301 301 300 300 299 298 297 297 297 296 296 296 296 296 296 296 296 297 297 294 293 292 292 293 293 296 299 298 296 296 294 294 293 293 293 293 292 291 290 290 291 291 292 292 294 295 294 293 292 292 291 293 295 296 294 294 294 294 294
299 299 299 300 300 300 300 301 300 299 298 297 296 296 296 296 296 296 296 296 296 295 297 297 294 292 292 292 292 293 296 296 296 296 295 294 294 294 293 293 292 291 290 291 291 291 291 292 292 294 291 289 289 291 294 294 294 294 294 293 292 293 293
298 299 298 299 299 299 300 300 300 300 299 298 297 296 296 296 295 295 295 295 295 296 295 295 293 293 291 291 291 291 291 292 293 297 295 294 294 294 294 294 294 292 290 291 291 291 292 292 293 291 290 290 291 292 293 293 292 292 292 292 292 291 291
297 298 298 298 298 297 298 299 299 299 299 298 297 296 296 296 295 294 294 294 294 295 295 295 293 292 292 290 290 290 290 290 291 295 296 295 294 294 294 293 292 291 291 291 290 290 290 291 291 290 291 291 291 292 293 292 292 292 291 290 290 290 290
Wind_Speed
8 7 7 6 4 4 6 7 7 7 7 6 6 6 5 6 6 6 6 5 5 6 6 6 6 6 5 4 6 6 5 6 7 8 8 6 9 6 1 2 1 2 6 1 4 8 6 7 2 1 1 2 6 4 3 4 5 5 5 3 4 3 3
3 3 4 4 5 4 6 6 7 7 7 7 6 6 5 5 5 6 6 6 6 6 5 5 5 5 7 7 7 6 7 6 6 5 7 8 7 7 4 1 4 3 3 1 4 3 4 5 1 3 2 2 2 1 4 4 4 4 4 4 3 3 3
3 3 4 5 6 5 6 7 7 6 6 6 6 5 6 5 5 6 6 6 6 6 5 6 6 6 6 6 7 8 7 7 5 6 7 6 7 5 5 5 4 3 3 2 2 3 2 1 6 7 5 6 5 0 2 5 5 3 3 3 3 3 3
6 6 6 6 5 5 6 6 6 7 5 6 5 6 6 5 5 6 6 6 5 5 5 6 7 7 7 7 6 5 7 8 7 6 4 4 5 5 5 6 7 9 8 6 7 5 4 3 5 3 3 3 4 5 1 3 4 3 3 3 4 3 3
6 5 7 8 6 7 6 6 5 6 6 5 5 5 5 5 6 6 5 5 5 6 7 6 5 5 5 5 5 6 6 6 6 7 5 5 6 5 5 5 6 6 5 6 7 7 7 5 8 7 6 3 3 2 2 3 2 2 1 2 2 3 3
4 6 7 7 6 7 6 6 6 6 6 6 6 6 6 6 6 5 5 5 4 5 5 5 4 4 5 5 6 6 6 7 7 8 7 7 8 7 6 5 5 6 6 3 5 6 3 5 7 7 1 3 4 3 1 3 1 1 0 1 1 1 2
7 7 6 7 7 6 5 6 7 6 6 7 7 8 7 5 4 5 5 5 4 4 5 5 5 5 5 6 5 6 7 6 6 7 8 7 7 6 5 6 5 6 5 5 6 6 7 7 6 9 7 2 3 5 2 2 1 3 1 0 1 2 3
7 7 7 6 6 6 6 6 6 5 6 6 7 7 4 6 5 5 5 5 4 5 4 4 4 4 5 4 4 5 5 5 6 6 6 7 7 6 5 6 6 5 5 6 7 6 7 8 9 8 9 9 3 4 3 1 1 5 2 1 2 3 3
5 6 5 5 5 5 6 7 6 6 5 6 7 4 4 6 6 6 5 5 4 4 5 5 5 5 5 5 5 5 6 4 6 7 6 7 7 7 6 4 5 5 5 6 6 6 6 6 7 7 8 10 11 6 2 3 3 5 2 3 1 3 4
7 8 8 7 6 5 5 5 6 5 5 5 6 4 5 5 6 6 6 6 5 5 4 4 4 4 5 5 5 5 6 5 6 7 5 6 6 6 5 6 6 5 5 4 4 5 6 6 7 7 8 10 9 10 6 6 7 7 4 4 5 5 5
3 1 3 6 5 5 4 4 3 4 6 6 5 4 4 5 5 7 6 6 5 5 5 4 4 5 5 5 5 5 5 5 5 4 5 6 6 6 5 5 4 5 3 5 5 5 6 7 7 6 6 5 8 10 7 8 7 5 4 4 3 4 4
2 4 4 5 6 5 5 4 5 5 4 4 5 5 5 5 6 6 6 5 5 5 4 4 5 6 6 6 5 5 5 6 6 6 4 5 5 6 6 6 4 5 4 5 4 4 4 6 6 5 5 5 5 7 8 5 5 5 4 7 6 2 5
9 7 5 6 6 6 4 3 4 4 6 5 5 6 6 6 6 7 6 5 5 5 5 5 6 6 6 6 5 5 5 6 6 6 5 4 5 5 6 6 5 5 5 4 4 5 5 5 5 6 6 6 4 4 6 7 7 7 4 5 5 4 5
4 3 4 5 4 4 4 3 3 5 4 6 5 5 6 6 6 6 5 5 5 6 7 6 6 6 5 5 5 5 5 6 6 5 5 5 4 5 5 5 5 4 4 6 5 5 5 5 5 5 5 4 5 5 6 5 6 2 0 0 3 3 3
5 3 3 4 5 4 4 4 3 3 6 6 7 7 7 6 6 5 4 5 5 5 6 6 6 6 6 5 6 4 5 6 5 5 5 6 5 5 5 5 5 4 5 6 5 5 5 5 5 6 7 7 6 5 4 5 4 5 5 1 2 2 3
5 6 6 5 5 4 3 3 3 1 5 6 7 8 8 7 7 6 5 5 4 4 5 6 6 6 6 7 7 6 6 6 6 6 6 6 6 5 5 5 5 5 4 4 4 5 5 5 5 6 6 6 7 6 5 5 5 5 6 5 3 5 5
6 7 8 7 7 6 4 3 5 1 6 5 7 6 6 7 6 7 7 5 4 4 4 5 6 6 7 7 7 8 7 6 6 6 7 6 6 6 6 5 5 5 4 5 4 5 5 5 6 6 6 5 6 7 6 5 6 6 5 7 6 7 6
7 8 7 7 8 8 7 6 7 6 3 7 5 5 5 6 7 7 8 7 5 5 5 6 6 6 5 6 7 7 7 7 7 7 7 7 8 7 7 7 6 5 5 5 4 5 5 6 6 6 6 6 6 6 4 6 6 4 6 8 4 1 3
6 7 6 7 8 8 8 6 7 8 7 9 5 5 6 6 7 8 7 6 6 6 6 6 7 7 6 5 5 6 6 7 7 7 7 6 7 6 7 7 6 6 6 7 6 6 6 7 6 6 6 6 5 5 5 5 4 4 6 6 6 3 3
4 5 5 7 8 8 9 8 8 10 8 6 6 5 5 7 6 6 6 5 6 6 6 6 6 5 5 6 6 6 6 6 5 5 5 6 6 7 7 7 6 7 8 8 7 7 7 6 7 7 7 7 6 6 6 6 6 6 6 5 3 3 4
2 4 3 4 6 7 8 8 8 7 7 7 7 6 7 7 5 4 4 4 3 4 5 5 5 5 5 6 6 5 6 6 6 5 4 4 5 6 6 5 5 6 7 7 7 7 7 7 6 6 6 6 7 7 6 5 6 6 5 5 6 6 4
3 2 3 4 5 6 7 7 7 7 7 6 5 5 5 5 5 4 3 3 3 2 4 5 5 6 7 6 6 7 6 6 6 6 5 4 3 3 3 3 4 5 6 8 11 10 10 8 7 7 6 7 8 8 6 6 7 6 6 5 4 2 4
1 5 4 5 6 5 6 5 5 6 6 5 4 5 5 4 6 7 6 4 3 2 2 1 1 4 6 7 7 6 6 6 6 6 6 5 3 3 2 2 2 4 3 6 8 7 6 4 4 4 8 6 6 6 7 7 6 7 7 7 7 7 6
4 4 6 5 3 4 4 5 6 5 6 5 5 4 5 5 4 5 7 7 5 2 1 0 3 2 5 8 7 6 7 7 6 5 5 6 5 5 3 4 4 6 7 8 9 13 12 8 9 11 10 5 2 6 9 7 8 7 8 8 5 5 7
5 2 2 2 3 3 4 4 4 4 6 7 5 4 4 4 4 4 5 5 5 3 1 4 5 4 4 7 8 6 5 6 6 5 6 6 6 5 5 5 4 4 5 6 7 11 12 10 12 16 15 14 14 13 8 5 6 5 6 6 5 4 4
7 4 3 3 5 5 4 4 3 2 5 6 6 5 4 4 3 2 4 6 4 3 2 6 6 4 2 5 7 6 3 4 5 6 6 7 6 6 6 6 5 5 5 9 7 9 11 9 8 15 15 16 17 16 15 15 9 4 6 7 7 3 2
9 10 4 5 3 4 4 5 6 5 4 6 7 6 5 5 4 3 3 3 4 4 4 8 8 4 3 9 12 10 6 6 6 6 6 6 6 6 5 6 7 6 4 4 5 7 7 7 6 8 9 9 9 11 13 14 14 14 10 7 7 6 0
12 10 9 6 2 4 3 6 7 6 7 7 6 5 5 5 4 4 4 3 4 6 6 11 8 3 7 13 16 12 8 8 8 8 7 6 6 6 5 6 6 6 5 5 4 6 7 6 8 9 10 9 9 8 9 9 8 7 7 7 7 6 4
10 11 10 8 5 1 7 5 8 8 8 8 8 7 7 6 6 6 5 5 6 7 7 14 11 7 7 14 15 10 8 9 9 8 8 7 6 6 6 6 7 7 6 6 6 7 6 6 9 10 10 8 8 8 8 6 8 8 7 6 5 5 4
10 11 10 10 10 10 6 6 5 4 11 9 9 9 8 7 6 6 6 6 7 7 8 12 13 12 9 9 13 8 9 9 9 9 8 6 6 7 6 5 6 7 7 6 5 7 6 9 9 10 9 9 7 8 7 6 8 9 10 10 11 10 9
10 12 12 11 11 10 10 8 6 4 8 12 12 10 9 7 7 8 8 8 6 8 8 12 15 13 12 13 5 10 8 10 8 9 8 7 7 7 8 12 8 7 8 5 6 8 6 8 8 7 8 8 8 8 6 4 3 5 7 9 9 10 11
9 10 13 12 11 11 10 8 7 6 7 12 12 11 11 9 8 9 9 8 11 10 9 11 15 15 15 12 8 4 8 10 10 7 8 8 7 7 7 9 11 9 7 7 10 10 10 9 7 6 7 9 9 8 2 2 4 6 5 6 7 6 9
11 9 10 12 12 12 10 9 9 8 7 7 12 12 11 10 10 9 9 9 9 9 10 10 13 18 16 15 12 6 4 7 11 8 6 7 8 6 6 6 7 9 10 11 12 12 11 11 9 5 6 8 9 6 0 4 5 7 7 8 6 7 7
12 11 9 9 11 10 11 11 9 9 8 6 10 13 13 11 11 8 9 10 10 10 9 10 14 19 19 18 17 11 8 8 6 5 7 7 7 7 6 6 5 7 10 11 12 13 13 12 10 8 7 7 4 4 4 6 7 8 8 7 7 6 7
11 10 10 8 10 12 9 10 10 9 8 7 10 13 11 10 10 9 8 9 10 10 11 13 11 17 19 19 18 17 9 9 8 6 6 6 6 6 6 5 5 7 11 12 12 13 13 13 12 9 8 9 9 10 8 6 6 6 7 6 6 7 6
9 9 9 9 9 9 9 11 10 9 9 9 10 12 12 9 9 9 9 9 8 9 9 10 15 14 17 18 18 17 16 12 13 9 8 6 5 6 5 7 6 10 14 14 14 14 13 14 11 9 11 12 12 12 9 7 7 8 8 8 8 8 7
9 9 10 9 10 10 9 8 9 9 8 8 7 10 9 8 8 9 9 9 9 9 8 7 12 15 13 16 16 17 17 16 13 8 7 6 5 5 6 8 10 16 17 18 18 17 16 14 11 13 13 13 13 11 8 8 8 8 7 8 8 7 6
Wind_Direction
207 206 191 191 171 154 148 144 144 161 178 193 207 198 185 172 169 171 176 177 172 179 180 185 189 194 186 175 173 172 167 175 171 171 175 170 175 201 179 240 54 138 168 110 153 169 157 158 153 10 34 181 148 217 187 147 148 150 136 115 120 107 98
213 206 185 178 173 157 152 141 150 158 184 196 200 193 189 172 172 179 182 181 179 181 189 191 186 186 188 176 168 167 178 182 183 180 173 181 183 188 150 107 99 114 126 58 131 109 139 145 105 167 155 3 74 112 135 122 143 146 139 144 144 139 127
182 183 180 175 179 172 162 151 158 168 174 190 198 200 192 178 174 185 189 183 183 178 186 189 182 186 192 187 185 183 179 179 182 177 188 185 190 168 169 145 120 109 95 91 138 132 55 62 162 176 167 155 156 167 117 137 149 128 123 145 138 130 123
179 177 180 183 172 168 175 163 158 172 180 186 188 200 195 177 180 192 188 185 174 174 183 182 188 189 190 188 185 183 184 181 176 180 186 183 178 170 167 165 159 166 169 170 178 185 157 142 92 104 128 161 155 125 184 145 139 129 141 160 155 152 150
160 182 191 188 184 172 181 170 166 161 179 182 190 195 191 179 181 192 192 186 166 171 191 189 186 189 182 177 178 187 189 184 172 174 177 176 180 185 182 180 175 178 178 170 176 169 164 168 157 156 152 129 89 84 122 76 52 86 138 192 181 163 161
227 197 197 197 190 189 179 176 169 175 167 180 196 200 199 182 182 178 192 193 172 185 193 184 185 183 178 181 188 192 183 180 179 176 178 186 181 183 191 187 179 184 191 178 154 157 132 130 138 134 132 139 135 119 86 124 136 37 54 183 143 149 138
194 213 199 199 197 191 184 183 180 181 183 191 195 210 196 176 173 185 195 197 181 183 197 197 183 182 182 188 191 192 189 185 172 180 184 179 181 191 165 167 186 191 182 166 160 144 147 136 150 153 142 91 113 127 104 92 134 125 254 141 129 136 133
190 200 197 207 197 190 188 187 185 183 189 198 205 215 174 170 175 187 208 203 189 189 200 199 180 177 184 186 192 192 183 177 180 174 180 174 181 182 176 180 179 179 173 171 162 170 161 165 155 157 143 130 86 107 130 62 176 221 194 254 169 155 165
219 189 183 199 208 200 191 191 186 185 193 201 221 199 183 175 169 187 201 205 185 185 195 190 178 178 180 185 182 179 183 175 174 179 183 181 188 183 179 167 160 189 175 173 176 168 170 162 156 158 156 151 145 152 121 150 200 235 165 169 241 194 174
214 188 182 182 192 196 194 195 186 182 183 207 218 194 193 186 177 186 195 201 188 183 183 184 174 172 173 181 183 177 179 176 175 186 173 183 192 179 173 172 179 174 183 173 166 163 160 154 165 166 168 162 161 144 156 171 212 201 229 184 174 225 179
260 277 176 170 173 182 194 186 166 162 193 210 218 202 198 195 195 195 190 197 184 173 182 175 167 168 173 183 186 185 177 167 175 175 181 178 182 178 172 171 164 167 171 168 175 164 164 165 162 171 167 156 154 159 161 167 206 212 199 211 191 187 197
193 213 167 158 153 176 196 185 180 187 188 209 221 213 203 204 204 201 190 189 172 173 169 168 165 173 180 180 183 177 169 169 172 180 183 176 176 170 174 176 166 165 167 169 156 155 162 162 167 162 161 152 184 162 157 136 151 244 173 195 222 219 177
200 209 174 151 153 163 184 195 188 178 197 195 218 216 215 207 205 201 188 177 167 163 167 167 172 174 179 183 175 175 173 171 172 176 175 178 166 175 171 174 176 172 168 154 159 161 163 170 162 162 164 163 152 136 141 151 167 202 204 201 194 197 172
176 186 173 160 146 166 160 171 203 201 173 199 193 211 216 216 211 203 180 174 172 172 169 169 172 169 174 174 177 175 167 174 171 169 164 171 172 169 173 172 176 179 159 163 169 161 162 159 157 169 148 153 156 153 147 151 164 158 33 106 141 180 153
160 179 165 139 152 171 170 166 182 211 196 199 178 196 202 206 210 209 192 180 175 170 167 164 163 164 169 169 171 175 169 172 169 164 169 173 173 172 167 170 175 172 173 172 165 169 169 161 159 156 168 179 170 178 176 142 161 156 187 178 91 79 142
178 171 161 149 154 171 183 149 97 262 245 200 192 188 186 189 199 206 201 189 171 170 168 167 168 168 175 174 172 176 179 176 172 171 176 179 176 165 167 179 182 172 166 168 176 172 164 172 173 172 173 176 176 185 189 170 139 172 173 210 179 162 177
188 180 177 170 157 155 150 154 109 53 282 263 197 195 176 179 189 198 202 194 168 168 171 175 173 179 179 178 177 177 179 180 176 177 178 175 175 176 181 180 190 179 173 177 172 164 172 168 176 182 175 178 173 187 194 186 186 164 180 167 220 187 182
211 191 188 171 160 154 158 163 137 150 245 260 227 173 186 178 183 194 199 195 177 172 183 183 184 185 187 189 182 176 179 179 181 179 180 180 182 183 181 191 192 182 173 185 175 171 169 175 181 174 185 181 181 179 181 193 200 154 149 196 183 191 148
230 210 183 166 155 156 156 155 156 164 176 236 220 184 176 186 185 192 198 192 184 178 180 188 193 192 184 184 189 185 179 181 183 181 181 180 182 185 187 193 191 180 179 186 193 178 176 179 174 181 189 191 185 160 178 201 196 184 184 199 164 143 170
248 239 201 171 161 161 160 160 170 176 174 215 210 182 194 185 193 189 191 189 186 175 180 187 195 193 183 180 187 185 179 182 181 183 186 183 184 187 193 194 185 179 183 191 187 180 177 177 174 188 190 189 182 165 179 194 191 189 193 162 160 181 167
230 245 241 191 178 169 163 169 182 180 161 197 209 186 189 190 181 168 166 167 154 152 161 175 187 192 186 182 177 185 185 176 174 182 185 187 188 191 192 184 178 181 187 191 185 181 173 178 182 187 199 182 171 164 175 182 184 185 173 172 177 182 179
150 200 230 203 183 179 177 180 181 173 164 188 192 186 175 163 145 128 107 117 122 124 148 168 178 182 186 189 176 180 184 180 175 177 178 181 184 184 176 166 177 186 193 191 188 177 184 181 176 190 203 186 171 174 168 173 179 175 182 174 177 113 141
240 173 210 210 198 186 176 180 189 175 168 168 165 154 156 159 157 156 143 119 105 111 116 135 185 218 210 187 181 183 180 181 180 175 165 143 112 92 91 84 85 107 112 66 41 23 358 252 193 191 177 190 176 169 169 167 174 181 171 175 188 160 167
274 222 199 205 207 184 177 182 193 181 147 149 151 156 151 148 154 154 149 144 131 109 52 335 334 262 242 221 187 182 183 182 178 167 151 142 137 117 84 78 74 68 72 77 70 58 43 20 89 78 75 79 117 171 166 165 185 176 173 188 165 167 189
281 267 290 227 194 194 185 183 198 176 149 142 135 131 140 137 140 137 125 121 116 108 66 353 348 325 271 227 194 178 170 167 162 139 133 129 126 119 107 88 71 85 99 115 117 89 66 41 79 84 81 75 71 61 68 140 156 159 164 150 156 181 179
310 261 199 190 183 178 172 165 141 172 159 134 119 118 114 110 104 98 124 125 104 67 45 355 348 343 261 207 150 120 104 119 116 120 122 124 123 122 118 103 89 62 71 97 105 110 113 101 78 84 82 77 65 64 64 59 61 127 147 123 129 100 132
348 346 304 225 190 129 152 148 109 82 78 87 99 98 88 80 56 53 52 76 88 51 36 341 336 340 161 129 99 92 90 83 79 80 87 96 103 108 114 121 113 94 70 82 108 116 116 122 114 86 71 62 61 52 52 51 57 60 71 104 111 105 27
360 355 352 334 247 142 126 102 92 91 85 81 80 79 83 74 60 51 43 39 62 48 14 351 350 58 129 108 98 96 90 85 80 71 65 65 75 82 85 90 94 99 89 78 70 116 126 129 107 96 82 68 61 54 51 44 37 43 62 72 87 103 101
9 8 7 9 0 112 119 117 120 112 89 69 69 75 55 54 52 48 38 43 61 45 16 10 26 48 115 106 101 98 94 94 92 87 75 70 69 65 67 78 92 87 85 80 57 91 113 117 102 95 88 80 71 60 51 40 45 52 63 75 80 80 68
28 20 18 26 31 21 23 86 91 100 103 88 75 59 55 52 48 53 50 48 62 56 37 19 31 35 16 93 101 99 102 96 94 89 81 75 71 70 67 66 77 90 82 72 60 89 107 111 98 96 96 86 76 66 45 22 39 55 62 69 78 68 61
29 38 31 32 34 38 35 11 35 57 95 103 83 66 52 37 44 57 55 50 52 68 53 32 38 34 40 11 51 114 108 103 92 91 88 68 66 63 58 66 73 73 77 70 67 77 82 98 99 103 105 99 81 72 49 20 50 47 70 73 76 76 69
18 43 52 39 35 41 37 32 17 35 86 94 88 84 70 50 32 39 47 51 50 60 58 42 39 45 36 34 34 68 108 110 102 98 99 87 71 71 60 50 58 67 78 80 75 72 74 90 98 103 108 94 87 75 38 41 77 78 69 68 48 58 49
15 22 48 64 56 44 38 41 28 28 19 71 95 90 83 73 55 34 32 37 47 44 58 51 49 50 46 41 39 53 30 102 118 114 99 102 95 74 63 60 50 53 71 75 76 75 74 83 98 98 93 94 98 91 187 76 59 79 74 75 67 56 56
18 18 22 57 68 64 63 43 32 36 21 18 80 83 80 79 73 51 38 37 39 42 43 60 54 59 55 49 44 43 64 49 47 82 106 95 93 92 80 67 62 51 70 77 77 74 74 74 81 83 78 89 86 133 133 88 78 80 80 74 68 58 48
23 22 19 15 72 74 57 67 59 36 35 33 55 74 70 69 72 67 53 45 41 35 33 40 60 59 62 58 52 47 54 50 45 52 50 83 85 79 82 76 65 65 76 77 76 76 75 76 78 81 87 103 106 106 99 101 101 89 81 77 76 65 52
25 25 25 31 36 54 78 76 59 50 48 42 49 61 62 55 56 57 53 44 40 34 32 30 44 54 60 63 60 58 54 52 44 56 63 41 48 85 82 85 80 79 77 74 72 71 72 73 71 81 93 89 90 90 90 77 74 71 64 59 54 48 37
21 26 26 27 42 45 35 45 73 69 54 45 50 61 57 49 51 52 51 44 34 30 24 29 33 42 47 54 62 61 60 55 51 57 65 65 25 42 74 82 93 89 84 81 75 69 65 64 74 72 72 74 70 68 72 70 64 68 68 59 55 47 38